OpenBCM V1.07b12 (Linux)

Packet Radio Mailbox

DB0FHN

[JN59NK Nuernberg]

 Login: GUEST





  
F1EBE  > KEPS     22.04.03 23:14l 106 Lines 5483 Bytes #999 (0) @ EU
BID : 29014_F8KGK
Read: DB0FHN GUEST
Subj: 2Line Orbital Elements 03111.AMSAT
Path: DB0FHN<DB0ZWI<DB0HDF<DB0HOT<OK0PKL<OK0PPL<RZ6HXA<SP7MGD<ON0BEL<F6HBB<
      F5KCK<F8KAE<F5ZQJ<F1FPP<F8KGK
Sent: 030422/0725Z @:F8KGK.FNOR.FRA.EU #:29014 [Rouen]xFBB7.04 $:29014_F8KGK
From: F1EBE@F8KGK.FNOR.FRA.EU
To  : KEPS@EU



AO-7                    
1 07530U 74089B   03110.66388994 -.00000029  00000-0  10000-3 0  1696
2 07530 101.7501 157.8491 0012170 321.0137  39.0054 12.53565221300843
AO-10                   
1 14129U 83058B   03109.15052102 -.00000073  00000-0  10000-3 0  9287
2 14129  26.0809 154.5485 6003632 345.1181   3.1329  2.05868114121297
UO-11                   
1 14781U 84021B   03111.21435260  .00000800  00000-0  11776-3 0  1271
2 14781  98.1278  85.6598 0010032  19.7246 340.4352 14.78178740 25346
UO-14                   
1 20437U 90005B   03110.66944874  .00000078  00000-0  45159-4 0  2135
2 20437  98.2620 151.3324 0011564  24.5664 335.6071 14.31258753691233
AO-16                   
1 20439U 90005D   03111.09362910  .00000106  00000-0  55434-4 0  8810
2 20439  98.3045 163.7723 0011531  30.6126 329.5732 14.31496901691338
DO-17                   
1 20440U 90005E   03111.21030166  .00000102  00000-0  53530-4 0  7428
2 20440  98.3229 167.9193 0012181  26.3252 333.8544 14.31777297691424
WO-18                   
1 20441U 90005F   03111.56016925  .00000078  00000-0  45027-4 0   634
2 20441  98.3207 167.4269 0012395  28.8962 331.2910 14.31577930691456
LO-19                   
1 20442U 90005G   03110.69287770  .00000097  00000-0  51882-4 0    71
2 20442  98.3370 169.7307 0012729  29.4885 330.7011 14.31741897691381
FO-20                   
1 20480U 90013C   03110.89958279 -.00000021  00000-0  30423-4 0  4893
2 20480  99.0557  62.1487 0539625 224.9021 130.7216 12.83331591618381
RS-12/13                
1 21089U 91007A   03110.98366045  .00000071  00000-0  58478-4 0  5083
2 21089  82.9214 135.8221 0030707 113.3502 247.0890 13.74410899612221
UO-22                   
1 21575U 91050B   03111.52374640  .00000164  00000-0  66067-4 0  7798
2 21575  98.1477 100.5579 0006932 314.8544  45.2081 14.39199468617192
KO-23                   
1 22077U 92052B   03111.21827001 -.00000037  00000-0  10000-3 0  1709
2 22077  66.0842 356.6249 0015583 260.6080  99.3177 12.86410666502233
AO-27                   
1 22825U 93061C   03110.95138025  .00000081  00000-0  47952-4 0  5486
2 22825  98.2660 137.5033 0009608  76.2850 283.9400 14.28965149498641
IO-26                   
1 22826U 93061D   03111.53212272  .00000100  00000-0  55530-4 0  3402
2 22826  98.2697 139.1967 0010071  74.9954 285.2349 14.29190388498779
KO-25                   
1 22828U 93061F   03110.58779778  .00000088  00000-0  50379-4 0  4779
2 22828  98.2627 138.5638 0010989  58.6618 301.5634 14.29528814466847
POSAT                   
1 22829U 93061G   03111.07550768  .00000135  00000-0  68550-4 0  5034
2 22829  98.2651 139.6649 0010848  57.6674 302.5554 14.29800263498842
RS-15                   
1 23439U 94085A   03110.93456658 -.00000017  00000-0  71253-3 0  7031
2 23439  64.8144 302.2530 0146447 103.1431 258.5880 11.27548944342510
FO-29                   
1 24278U 96046B   03110.92617585  .00000006  00000-0  39657-4 0  5846
2 24278  98.5478 253.8414 0351446  57.5106 305.9486 13.52879248329604
TO-31                   
1 25396U 98043C   03110.96759942 -.00000043  00000-0  00000-0 0  8431
2 25396  98.6171 186.8378 0001630 340.7268  19.3851 14.23530202248261
GO-32                   
1 25397U 98043D   03110.94307450  .00000014  00000-0  25189-4 0  1847
2 25397  98.6113 185.6152 0001179   9.3414 350.7784 14.22973667248222
SO-33                   
1 25509U 98061B   03111.19554192  .00000274  00000-0  43599-4 0  8285
2 25509  31.4270 165.1309 0357143 121.0395 242.5798 14.27485771234124
PO-34                   
1 25520U 98064B   03110.53255251  .00001969  00000-0  94831-4 0  6760
2 25520  28.4623 177.6985 0005948 293.4597  66.5375 15.14196202246835
ISS          
1 25544U 98067A   03111.78403935  .00011026  00000-0  14873-3 0  9159
2 25544  51.6330 303.5836 0006503  42.9621 137.4465 15.58341578252204
UO-36                   
1 25693U 99021A   03111.45974780  .00000169  00000-0  44069-4 0  8965
2 25693  64.5602 181.3438 0025995 312.5335  47.3570 14.76454871215393
OO-38                   
1 26063U 00004C   03111.24019011  .00000085  00000-0  49381-4 0  7670
2 26063 100.2014 176.9701 0037338 112.7397 247.7735 14.35508238169237
SO-41                   
1 26545U 00057A   03110.80409567  .00000856  00000-0  13247-3 0  4431
2 26545  64.5594 203.6938 0047496 228.9533 130.7473 14.79140721138283
MO-46                   
1 26548U 00057D   03110.73100369  .00001062  00000-0  15185-3 0  4460
2 26548  64.5578 196.1204 0040703 229.2918 130.4652 14.81476105138439
SO-42                   
1 26549U 00057E   03110.74902260  .00000642  00000-0  10644-3 0  7384
2 26549  64.5525 208.2911 0051936 228.4209 131.2432 14.78069368138188
AO-40                   
1 26609U 00072B   03109.00807478 -.00000346  00000-0  10000-3 0  3250
2 26609   8.5228  53.4139 7957312 165.7240 252.3808  1.25596241 11335
NO-44                   
1 26931U 01043C   03110.97056186  .00000079  00000-0  63632-4 0  4643
2 26931  67.0467  97.5357 0005961 274.7596  85.2825 14.29148870 81126
NO-45                   
1 26932U 01043D   03110.94115894  .00000053  00000-0  53176-4 0  4692
2 26932  67.0534  97.3030 0003964 265.0690  94.9958 14.29318548 81144
AO-49                   
1 27605U 02058A   03111.22440140  .00000389  00000-0  83609-4 0  1136
2 27605  64.5590  10.0050 0034960  84.7581 275.7508 14.71466625 17882
SO-50                   
1 27607U 02058C   03111.21152552  .00000560  00000-0  11410-3 0  1067
2 27607  64.5522  10.9160 0036294  81.5613 278.9598 14.70040191 17860



Read previous mail | Read next mail


 18.09.2025 06:19:41lGo back Go up